[[{"header":{"parameterUnit":"m.s-1","parameterCategory":2,"la1":30.2991,"la2":30.254,"lo1":-89.0895,"lo2":-89.0444,"dy":0.0017,"dx":0.0017,"nx":28,"ny":28,"refTime":"2024-05-26T21:00:00:Z","depth":"0","parameterNumber":2,"parameterNumberName":"U-component_of_CURRENTS"},"data":[0,0,0,0,0,0,0,0,0,0,0,0,0,0,0,0,0,0,0,0,0,0,0,0,0,0,0,0,0,0,0,0,0,0,0,0,0,0,0,0,0,0,0,0,0,0,0,0,0,0,0,0,0,0,0,0,0,0,0.3051,0.3051,0,0.3061,0.3061,0.3061,0.3038,0.3038,0.3038,0.3037,0.303,0.3031,0.3031,0,0,0,0,0,0,0,0,0,0,0,0,0,0.303,0.303,0.3051,0.3051,0.3051,0.3061,0.3061,0.3061,0.3039,0.3038,0.3037,0.3037,0.303,0.3031,0.3031,0,0,0,0,0,0,0,0,0,0,0,0,0,0.3037,0.303,0.305,0.3043,0.3043,0.3061,0.3061,0.3061,0.3039,0.3038,0.3037,0.3037,0.303,0.303,0.3031,0.3048,0,0,0.3032,0.3032,0,0,0,0,0,0,0,0,0.3037,0.3038,0.3044,0.3044,0.3043,0.305,0.3051,0.3057,0.3039,0.3038,0.3037,0.3036,0.3037,0.3037,0.3037,0.3048,0.3048,0.3032,0.3032,0.3033,0.3033,0,0,0,0,0,0,0,0.3036,0.3037,0.3052,0.3044,0.3044,0.3046,0.3046,0.3052,0.3039,0.3038,0.3037,0.3042,0.3037,0.3037,0.3037,0.3048,0.3032,0.3033,0.3033,0.3033,0.3122,0.3124,0,0,0,0,0,0,0.304,0.3037,0.3052,0.3053,0.3041,0.3047,0.3047,0.3046,0.304,0.3039,0.3043,0.3041,0.3037,0.3037,0.3037,0.3097,0.3033,0.3033,0.3033,0.312,0.3123,0.3125,0,0,0,0,0,0,0.3039,0.3041,0.3051,0.3047,0.3049,0.3048,0.3048,0.3047,0.3051,0.3044,0.3042,0.3048,0.3036,0.3036,0.3057,0.3094,0.3033,0.3034,0.3118,0.3121,0.3124,0.3191,0,0,0,0,0,0,0.3039,0.304,0.3045,0.3047,0.3049,0.3067,0.3049,0.3048,0.3056,0.3054,0.3048,0.3046,0.3036,0.3057,0.3058,0.3094,0.3034,0.3115,0.3119,0.3123,0.3186,0.3196,0.3204,0,0,0,0,0,0.3038,0.3044,0.3044,0.3047,0.3054,0.3068,0.3069,0.3064,0.3057,0.3063,0.3067,0.3047,0.3083,0.3059,0.3059,0.3096,0.3113,0.3118,0.3123,0.3182,0.3194,0.3204,0,0,0,0,0,0,0.3034,0.3043,0.3043,0.3051,0.3062,0.3065,0.3071,0.3071,0.3079,0.3077,0.3067,0.3067,0.31,0.3093,0.3066,0.3137,0.3098,0.3103,0.3143,0.3154,0.3163,0.3179,0.3034,0,0,0,0,0,0.3038,0.3044,0.3055,0.3062,0.3068,0.3073,0.3079,0.3078,0.3085,0.3087,0.3084,0.3094,0.3122,0.3131,0.3141,0.3176,0.3186,0.3205,0.3214,0.3222,0.3237,0.33,0.3317,0.3141,0.3141,0.3141,0,0,0.3037,0.3045,0.3047,0.3062,0.3068,0.3088,0.3073,0.3086,0.311,0.3087,0.3111,0.312,0.3138,0.3178,0.3194,0.3176,0.3274,0.3228,0.3234,0.3245,0.3307,0.3324,0.3339,0.3144,0.3143,0.3143,0,0,0.3043,0.3048,0.3057,0.3073,0.309,0.31,0.3107,0.3115,0.3125,0.3157,0.3156,0.3194,0.3212,0.3244,0.3264,0.3335,0.3318,0.3333,0.3395,0.3456,0.3471,0.3484,0.3502,0.3517,0.3341,0.3341,0.3341,0,0.3043,0.3055,0.3063,0.3082,0.31,0.3109,0.3131,0.3151,0.3166,0.3193,0.3173,0.3249,0.3255,0.3338,0.3364,0.3357,0.337,0.3347,0.3468,0.3482,0.3494,0.3509,0.3524,0.3345,0.3344,0.3344,0.3344,0,0.3058,0.3073,0.3082,0.3111,0.3135,0.3153,0.3187,0.3212,0.3229,0.3256,0.3326,0.3346,0.3394,0.341,0.3409,0.3508,0.348,0.3468,0.3437,0.3516,0.3527,0.3541,0.335,0.3349,0.3348,0.3347,0,0,0.3037,0.3082,0.3084,0.3103,0.3151,0.3167,0.3229,0.3287,0.3339,0.3368,0.3448,0.3501,0.3511,0.3536,0.3543,0.3603,0.3694,0.3576,0.3578,0.3589,0.3804,0.3747,0.3756,0.3703,0.3706,0.3709,0.3769,0,0.3044,0.3077,0.3107,0.3148,0.3169,0.3216,0.3276,0.3337,0.3392,0.3472,0.3529,0.3598,0.356,0.3595,0.365,0.3693,0.3739,0.3677,0.3731,0.3732,0.3669,0.3775,0.3695,0.374,0.3783,0.3785,0.3787,0,0.3044,0.3069,0.3105,0.3171,0.3186,0.3222,0.3323,0.3377,0.3504,0.3558,0.3642,0.3681,0.3781,0.3739,0.3841,0.3801,0.3808,0.383,0.3832,0.377,0.3704,0.3673,0.3764,0.3715,0.3809,0.3807,0.3806,0,0.3012,0.3065,0.3092,0.3113,0.3194,0.3231,0.3282,0.3399,0.3475,0.3617,0.3697,0.3794,0.3859,0.3905,0.3928,0.3898,0.4034,0.3995,0.3944,0.3937,0.3877,0.386,0.3925,0.407,0.407,0.407,0.407,0,0.3004,0.3019,0.3076,0.309,0.3142,0.3209,0.3299,0.3372,0.3523,0.3627,0.3725,0.3822,0.3909,0.3984,0.3984,0.4011,0.407,0.3982,0.3971,0.3894,0.3879,0.3836,0.3804,0.4072,0.4071,0.4071,0.4071,0,0.2956,0.2994,0.302,0.3097,0.3124,0.3156,0.3295,0.3371,0.351,0.3658,0.3711,0.3875,0.3968,0.4026,0.4115,0.4077,0.4014,0.4094,0.3976,0.395,0.3838,0.3812,0.3637,0.3551,0.4062,0.4061,0.4061,0,0.293,0.2941,0.3003,0.3025,0.3054,0.3128,0.3194,0.3345,0.3437,0.3672,0.3736,0.3893,0.3977,0.4085,0.408,0.4092,0.3979,0.4003,0.3939,0.3852,0.3817,0.3594,0.3519,0.3877,0.3874,0.3873,0.3871,0,0.2883,0.2902,0.2926,0.2972,0.3022,0.3092,0.3191,0.3262,0.3448,0.3562,0.3701,0.3795,0.3946,0.395,0.3994,0.3983,0.3843,0.3966,0.3934,0.3737,0.3444,0.3349,0.3785,0.3856,0.3858,0.3859,0.386,0.386,0.2838,0.2838,0.2876,0.2906,0.2961,0.3013,0.303,0.315,0.3251,0.3379,0.3554,0.3643,0.3821,0.388,0.3841,0.3791,0.3707,0.3725,0.3716,0.3508,0.3376,0.3757,0.3778,0.3779,0.378,0.3781,0.3782,0,0.2775,0.2783,0.2813,0.2833,0.2843,0.2913,0.2995,0.2988,0.3016,0.3195,0.3283,0.3468,0.3527,0.3636,0.3687,0.3588,0.3385,0.3517,0.3236,0.3192,0.3617,0.3567,0.3474,0.3474,0.3474,0.3474,0.3474,0.3474,0.2743,0.273,0.2736,0.2704,0.2716,0.2691,0.2697,0.2694,0.2776,0.2844,0.2952,0.3088,0.3387,0.3554,0.3524,0.3448,0.3212,0.3046,0.3022,0.3412,0.3431,0.3449,0.3397,0.327,0.327,0.2469,0.2464,0.246]},{"header":{"parameterUnit":"m.s-1","parameterCategory":2,"la1":30.2991,"la2":30.254,"lo1":-89.0895,"lo2":-89.0444,"dy":0.0017,"dx":0.0017,"nx":28,"ny":28,"refTime":"2024-05-26T21:00:00:Z","depth":"0","parameterNumber":3,"parameterNumberName":"V-component_of_CURRENTS"},"data":[0,0,0,0,0,0,0,0,0,0,0,0,0,0,0,0,0,0,0,0,0,0,0,0,0,0,0,0,0,0,0,0,0,0,0,0,0,0,0,0,0,0,0,0,0,0,0,0,0,0,0,0,0,0,0,0,0,0,0.0304,0.0304,0,0.0263,0.0262,0.0262,0.0231,0.0231,0.023,0.023,0.016,0.0158,0.0157,0,0,0,0,0,0,0,0,0,0,0,0,0,0.0311,0.0312,0.0304,0.0304,0.0303,0.0263,0.0262,0.0262,0.0231,0.0231,0.023,0.023,0.0161,0.0159,0.0157,0,0,0,0,0,0,0,0,0,0,0,0,0,0.0292,0.0312,0.0304,0.0284,0.0282,0.0263,0.0262,0.0262,0.0231,0.0231,0.023,0.023,0.0161,0.0159,0.0156,0.0146,0,0,0.0148,0.0147,0,0,0,0,0,0,0,0,0.0293,0.0292,0.0287,0.0285,0.0283,0.0253,0.0239,0.0222,0.0231,0.0249,0.023,0.023,0.0189,0.0184,0.0176,0.0143,0.014,0.0148,0.0147,0.0146,0.0145,0,0,0,0,0,0,0,0.0295,0.0293,0.0287,0.0287,0.0284,0.0261,0.0259,0.0236,0.022,0.0247,0.0245,0.0242,0.0188,0.0179,0.0174,0.0139,0.0148,0.0146,0.0145,0.0144,0.0104,0.0104,0,0,0,0,0,0,0.0305,0.0295,0.0288,0.0286,0.0289,0.0262,0.0259,0.0262,0.0221,0.0215,0.0243,0.0241,0.0183,0.0177,0.0172,0.0182,0.0146,0.0143,0.0142,0.0104,0.0104,0.0105,0,0,0,0,0,0,0.0305,0.0305,0.029,0.029,0.0286,0.0263,0.0266,0.0261,0.0255,0.0218,0.0211,0.0242,0.0183,0.0175,0.0161,0.0178,0.0142,0.014,0.0103,0.0104,0.0104,0.0186,0,0,0,0,0,0,0.0306,0.0305,0.031,0.0291,0.0287,0.0287,0.0266,0.026,0.0254,0.0252,0.0215,0.0208,0.0182,0.0166,0.0159,0.0174,0.0138,0.0102,0.0103,0.0104,0.0183,0.0189,0.0195,0,0,0,0,0,0.0306,0.0318,0.031,0.0309,0.0294,0.0287,0.0283,0.0264,0.0255,0.0257,0.0235,0.0209,0.0166,0.0164,0.0156,0.017,0.0102,0.0103,0.0104,0.018,0.0188,0.0195,0,0,0,0,0,0,0.0322,0.0315,0.0307,0.0315,0.0305,0.0283,0.0282,0.027,0.0254,0.0251,0.0216,0.0208,0.02,0.0173,0.0171,0.016,0.0129,0.0129,0.019,0.0197,0.0203,0.0228,0.0136,0,0,0,0,0,0.0328,0.0335,0.0322,0.0328,0.0326,0.0305,0.0299,0.0288,0.0271,0.0264,0.0239,0.0214,0.0197,0.0189,0.0164,0.0161,0.0133,0.0163,0.0169,0.0175,0.0189,0.0167,0.0173,0.0108,0.0108,0.0108,0,0,0.0335,0.0332,0.0335,0.0331,0.0321,0.0331,0.0301,0.0298,0.0309,0.0259,0.0263,0.0232,0.02,0.0197,0.0191,0.0178,0.0175,0.0176,0.0181,0.0193,0.0169,0.0175,0.0181,0.0109,0.0109,0.0109,0,0,0.0357,0.035,0.0367,0.0364,0.0356,0.0348,0.0352,0.0334,0.033,0.0329,0.0297,0.0281,0.0253,0.0236,0.0225,0.025,0.0207,0.0238,0.0295,0.0274,0.0279,0.0284,0.0246,0.0247,0.0245,0.0245,0.0245,0,0.0365,0.0387,0.0369,0.0385,0.0393,0.0363,0.0387,0.0378,0.0359,0.037,0.0341,0.0315,0.0275,0.0288,0.0291,0.0266,0.0242,0.0272,0.0283,0.0287,0.0291,0.0251,0.0251,0.0249,0.0249,0.0249,0.0248,0,0.0403,0.0419,0.0428,0.0444,0.0449,0.0462,0.0455,0.046,0.0449,0.0445,0.0449,0.0396,0.0384,0.0366,0.0334,0.0345,0.0315,0.0292,0.0269,0.0303,0.0258,0.0256,0.0255,0.0254,0.0253,0.0252,0,0,0.0428,0.0452,0.0455,0.0484,0.0485,0.0502,0.0523,0.0547,0.0583,0.0547,0.0589,0.0536,0.0506,0.049,0.0444,0.0423,0.0407,0.0374,0.0371,0.0346,0.0353,0.0333,0.0328,0.039,0.0391,0.0391,0.0309,0,0.0465,0.0517,0.0517,0.0574,0.0605,0.0597,0.063,0.0645,0.0649,0.0678,0.0631,0.0643,0.0555,0.0555,0.0516,0.0444,0.0408,0.0431,0.0317,0.0313,0.0299,0.0328,0.0379,0.0311,0.0307,0.0306,0.0306,0,0.0507,0.0541,0.06,0.0663,0.0677,0.0706,0.0771,0.0798,0.0823,0.0827,0.0819,0.078,0.0743,0.0666,0.0548,0.0569,0.0465,0.0398,0.0393,0.0349,0.0291,0.0278,0.0308,0.0188,0.0303,0.0303,0.0303,0,0.0551,0.0606,0.0662,0.0678,0.0734,0.0772,0.0809,0.0847,0.0906,0.0928,0.0972,0.0902,0.089,0.076,0.0592,0.0577,0.0462,0.0421,0.0302,0.0297,0.0307,0.0304,0.0219,0.0336,0.0336,0.0337,0.0337,0,0.0599,0.0648,0.069,0.0725,0.0815,0.0832,0.0937,0.0962,0.1031,0.1129,0.1053,0.11,0.0916,0.0823,0.0646,0.0471,0.0492,0.0322,0.0285,0.0334,0.0335,0.0202,0.012,0.0333,0.0334,0.0335,0.0335,0,0.064,0.0661,0.0739,0.0808,0.0839,0.0907,0.1031,0.1118,0.1158,0.1283,0.1302,0.1259,0.1141,0.0934,0.0729,0.0559,0.0314,0.0306,0.0367,0.0339,0.0126,0.0047,-0.0077,-0.0141,0.0178,0.0177,0.0177,0,0.0665,0.0705,0.0801,0.0862,0.0898,0.1004,0.1095,0.1174,0.1281,0.1388,0.1464,0.1392,0.137,0.1048,0.074,0.0441,0.0293,0.0277,0.0256,0.0133,0.0018,-0.0026,-0.0074,0.0289,0.0289,0.0289,0.0289,0,0.0719,0.0747,0.0813,0.0938,0.1038,0.117,0.1305,0.141,0.1529,0.1633,0.174,0.1732,0.1444,0.119,0.0773,0.0545,0.022,0.0272,0.0141,0.01,0.0053,-0.0031,0.0303,0.0291,0.0291,0.0291,0.0291,0.0291,0.0758,0.0814,0.0903,0.1026,0.1152,0.1326,0.1455,0.161,0.1793,0.1976,0.1944,0.1997,0.1639,0.1093,0.0745,0.0233,0.0213,0.0103,0.0015,-0.0019,-0.0067,0.0263,0.0213,0.0213,0.0212,0.0212,0.0211,0,0.0809,0.0879,0.0993,0.115,0.1303,0.1363,0.1594,0.1739,0.1959,0.2139,0.2231,0.2171,0.1676,0.1168,0.0476,0.0085,-0.0067,-0.0131,-0.0172,-0.0213,0.0086,0.0107,0.0039,0.0039,0.0039,0.004,0.004,0.004,0.084,0.0949,0.101,0.125,0.1372,0.1597,0.1738,0.1947,0.2129,0.2396,0.2525,0.2583,0.2312,0.097,0.0119,-0.0116,-0.0375,-0.0442,-0.0589,-0.0374,-0.0358,-0.0343,-0.0341,-0.0502,-0.0503,-0.0807,-0.0811,-0.0813]}],[{"header":{"parameterUnit":"m.s-1","parameterCategory":2,"la1":30.2991,"la2":30.254,"lo1":-89.0895,"lo2":-89.0444,"dy":0.0017,"dx":0.0017,"nx":28,"ny":28,"refTime":"2024-05-26T21:00:00:Z","depth":"2","parameterNumber":2,"parameterNumberName":"U-component_of_CURRENTS"},"data":[0,0,0,0,0,0,0,0,0,0,0,0,0,0,0,0,0,0,0,0,0,0,0,0,0,0,0,0,0,0,0,0,0,0,0,0,0,0,0,0,0,0,0,0,0,0,0,0,0,0,0,0,0,0,0,0,0,0,0.2938,0.2938,0,0.2949,0.2949,0.2949,0.2933,0.2932,0.2932,0.2932,0.293,0.293,0.293,0,0,0,0,0,0,0,0,0,0,0,0,0,0.2919,0.2919,0.2938,0.2938,0.2939,0.2949,0.2949,0.2949,0.2933,0.2932,0.2932,0.2932,0.293,0.293,0.293,0,0,0,0,0,0,0,0,0,0,0,0,0,0.2926,0.2919,0.2938,0.2934,0.2934,0.2949,0.2949,0.2948,0.2933,0.2932,0.2932,0.2931,0.293,0.293,0.293,0.2943,0,0,0.2932,0.2932,0,0,0,0,0,0,0,0,0.2926,0.2926,0.2934,0.2934,0.2934,0.2941,0.2941,0.2947,0.2933,0.2931,0.2932,0.2931,0.2934,0.2934,0.2934,0.2943,0.2943,0.2932,0.2932,0.2932,0.2932,0,0,0,0,0,0,0,0.2925,0.2926,0.294,0.2935,0.2935,0.2937,0.2937,0.2942,0.2933,0.2931,0.293,0.2936,0.2934,0.2934,0.2934,0.2943,0.2932,0.2932,0.2932,0.2932,0.3018,0.302,0,0,0,0,0,0,0.2929,0.2925,0.2939,0.294,0.2931,0.2938,0.2938,0.2937,0.2933,0.2933,0.2936,0.2935,0.2933,0.2934,0.2934,0.2994,0.2932,0.2932,0.2933,0.3016,0.3019,0.3021,0,0,0,0,0,0,0.2928,0.2929,0.2939,0.2935,0.2937,0.2939,0.2938,0.2938,0.2944,0.2938,0.2937,0.2944,0.2933,0.2933,0.2955,0.2992,0.2933,0.2933,0.3014,0.3017,0.302,0.3086,0,0,0,0,0,0,0.2927,0.2929,0.2934,0.2935,0.2937,0.2954,0.2939,0.2938,0.2949,0.2948,0.2945,0.2943,0.2933,0.2955,0.2956,0.2992,0.2933,0.3011,0.3015,0.3019,0.3081,0.3091,0.3099,0,0,0,0,0,0.2926,0.2932,0.2934,0.2936,0.2943,0.2954,0.2956,0.2953,0.295,0.2957,0.2963,0.2944,0.298,0.2957,0.2957,0.2994,0.3009,0.3014,0.3019,0.3077,0.3089,0.3099,0,0,0,0,0,0,0.2925,0.2932,0.2933,0.2941,0.2951,0.2953,0.296,0.2962,0.2971,0.2971,0.2963,0.2963,0.2997,0.299,0.2964,0.3033,0.2995,0.3,0.3039,0.305,0.3059,0.3074,0.2934,0,0,0,0,0,0.2929,0.2935,0.2944,0.2951,0.2957,0.2962,0.2969,0.297,0.2977,0.298,0.2979,0.299,0.3017,0.3027,0.3036,0.3071,0.3079,0.3099,0.3108,0.3115,0.313,0.3189,0.3204,0.3036,0.3036,0.3036,0,0,0.2929,0.2936,0.2939,0.2952,0.2958,0.2977,0.2964,0.2977,0.3,0.298,0.3006,0.3015,0.3032,0.3072,0.3088,0.307,0.3165,0.3121,0.3127,0.3138,0.3195,0.3212,0.3226,0.3039,0.3039,0.3038,0,0,0.2935,0.2941,0.2949,0.2964,0.2981,0.299,0.2998,0.3006,0.3017,0.305,0.3049,0.3088,0.3107,0.3136,0.3155,0.3223,0.3208,0.3223,0.3284,0.3341,0.3355,0.3368,0.3386,0.34,0.3231,0.3231,0.3232,0,0.2937,0.2947,0.2955,0.2972,0.299,0.3,0.302,0.304,0.3056,0.3083,0.3067,0.3141,0.3147,0.3226,0.3252,0.3245,0.3258,0.3238,0.3353,0.3366,0.3377,0.3393,0.3407,0.3235,0.3235,0.3234,0.3234,0,0.295,0.2964,0.2973,0.3,0.3023,0.304,0.3072,0.3098,0.3117,0.3143,0.3214,0.3233,0.3281,0.3297,0.3296,0.3391,0.3365,0.3353,0.3323,0.3398,0.3409,0.3423,0.3241,0.3239,0.3238,0.3237,0,0,0.2933,0.2973,0.2975,0.2992,0.3039,0.3052,0.3112,0.3167,0.3217,0.3249,0.3325,0.338,0.3393,0.3417,0.3425,0.3481,0.3571,0.3458,0.3459,0.3471,0.3675,0.3617,0.3625,0.3578,0.3581,0.3584,0.3643,0,0.2939,0.2968,0.2996,0.3034,0.3052,0.3098,0.3154,0.3213,0.3268,0.3344,0.3401,0.3469,0.3439,0.3476,0.3528,0.3569,0.3613,0.3554,0.3604,0.3605,0.3542,0.3642,0.3343,0.3368,0.3656,0.3659,0.366,0,0.2938,0.296,0.2994,0.3053,0.3067,0.3102,0.3198,0.325,0.3371,0.3424,0.3509,0.355,0.3648,0.361,0.371,0.3673,0.3681,0.3701,0.3703,0.3638,0.3574,0.3344,0.3382,0.3683,0.3681,0.3679,0.3678,0,0.2908,0.2957,0.2981,0.3,0.3075,0.3112,0.3161,0.3273,0.3346,0.3483,0.3561,0.3657,0.3723,0.3768,0.3794,0.3767,0.3894,0.3856,0.3805,0.3798,0.355,0.3517,0.3928,0.3928,0.3928,0.3928,0.3928,0,0.29,0.2913,0.2967,0.298,0.3029,0.3092,0.318,0.325,0.3394,0.3491,0.3591,0.3681,0.3771,0.3844,0.3846,0.3871,0.393,0.3841,0.383,0.3562,0.3532,0.3806,0.3791,0.393,0.393,0.3929,0.3929,0,0.2855,0.289,0.2914,0.2986,0.3012,0.3044,0.3178,0.3249,0.3387,0.3523,0.3577,0.3735,0.3825,0.3886,0.397,0.3933,0.3965,0.3947,0.3613,0.3563,0.3812,0.38,0.3914,0.3913,0.3912,0.3911,0.391,0,0.2831,0.284,0.2899,0.2918,0.2947,0.302,0.3081,0.3228,0.3315,0.3535,0.3594,0.3747,0.3823,0.3927,0.3892,0.3897,0.3958,0.3623,0.353,0.3843,0.3821,0.381,0.3799,0.321,0.3203,0.3198,0.3194,0,0.2785,0.2805,0.2826,0.2868,0.2916,0.2978,0.3075,0.3139,0.3315,0.3421,0.3547,0.3633,0.3751,0.3635,0.3668,0.3623,0.3605,0.3521,0.3951,0.3274,0.3189,0.3164,0.3174,0.3148,0.3153,0.3156,0.3158,0.316,0.2743,0.2742,0.2776,0.2803,0.2855,0.2897,0.2904,0.3015,0.3105,0.3201,0.3369,0.338,0.3433,0.3335,0.3229,0.3145,0.3399,0.324,0.3252,0.327,0.3193,0.3113,0.304,0.3044,0.3047,0.305,0.3053,0,0.2678,0.2689,0.2714,0.2728,0.273,0.2804,0.2866,0.2835,0.2845,0.2968,0.303,0.2813,0.2769,0.2813,0.2624,0.2639,0.2562,0.2526,0.2394,0.2445,0.2489,0.2366,0.1997,0.1993,0.1989,0.1986,0,0,0.2646,0.2628,0.2631,0.259,0.2604,0.2563,0.2556,0.2512,0.2539,0.2478,0.2457,0.2657,0.2765,0.2343,0.2296,0.2114,0.225,0.2026,0.2885,0.2784,0.2822,0.293,0.2804,0,0,0,0,0]},{"header":{"parameterUnit":"m.s-1","parameterCategory":2,"la1":30.2991,"la2":30.254,"lo1":-89.0895,"lo2":-89.0444,"dy":0.0017,"dx":0.0017,"nx":28,"ny":28,"refTime":"2024-05-26T21:00:00:Z","depth":"2","parameterNumber":3,"parameterNumberName":"V-component_of_CURRENTS"},"data":[0,0,0,0,0,0,0,0,0,0,0,0,0,0,0,0,0,0,0,0,0,0,0,0,0,0,0,0,0,0,0,0,0,0,0,0,0,0,0,0,0,0,0,0,0,0,0,0,0,0,0,0,0,0,0,0,0,0,0.0219,0.0219,0,0.018,0.0179,0.0179,0.015,0.015,0.015,0.0149,0.0083,0.0081,0.008,0,0,0,0,0,0,0,0,0,0,0,0,0,0.0227,0.0227,0.0219,0.0219,0.0218,0.018,0.0179,0.0179,0.015,0.015,0.0149,0.0149,0.0083,0.0081,0.0079,0,0,0,0,0,0,0,0,0,0,0,0,0,0.0208,0.0227,0.0219,0.02,0.0198,0.018,0.0179,0.0178,0.015,0.015,0.0149,0.0149,0.0084,0.0082,0.0079,0.0069,0,0,0.0072,0.0071,0,0,0,0,0,0,0,0,0.0209,0.0208,0.0203,0.0201,0.0199,0.017,0.0158,0.0141,0.015,0.0167,0.0149,0.0149,0.011,0.0106,0.0098,0.0066,0.0063,0.0072,0.007,0.0069,0.0068,0,0,0,0,0,0,0,0.0211,0.0209,0.0203,0.0203,0.02,0.0179,0.0176,0.0154,0.0139,0.0166,0.0164,0.0161,0.0109,0.01,0.0096,0.0062,0.0072,0.0069,0.0068,0.0067,0.003,0.0031,0,0,0,0,0,0,0.022,0.0211,0.0204,0.0202,0.0205,0.0179,0.0176,0.0179,0.014,0.0134,0.0161,0.016,0.0105,0.0099,0.0094,0.0105,0.0069,0.0067,0.0065,0.003,0.003,0.0031,0,0,0,0,0,0,0.0221,0.022,0.0205,0.0206,0.0202,0.018,0.0183,0.0178,0.0174,0.0137,0.0131,0.0162,0.0104,0.0097,0.0085,0.0101,0.0066,0.0063,0.0029,0.003,0.0031,0.011,0,0,0,0,0,0,0.0221,0.0221,0.0226,0.0207,0.0203,0.0203,0.0183,0.0178,0.0173,0.0171,0.0136,0.0129,0.0103,0.0089,0.0082,0.0097,0.0061,0.0029,0.003,0.003,0.0107,0.0114,0.012,0,0,0,0,0,0.0222,0.0233,0.0226,0.0225,0.021,0.0204,0.02,0.0182,0.0173,0.0176,0.0155,0.013,0.009,0.0088,0.008,0.0094,0.0028,0.0029,0.003,0.0104,0.0113,0.0119,0,0,0,0,0,0,0.0238,0.0231,0.0223,0.0231,0.0221,0.0199,0.0199,0.0188,0.0173,0.0171,0.0137,0.0129,0.0123,0.0097,0.0095,0.0085,0.0054,0.0054,0.0113,0.012,0.0126,0.015,0.0059,0,0,0,0,0,0.0244,0.0251,0.0238,0.0244,0.0242,0.0222,0.0216,0.0206,0.019,0.0184,0.016,0.0136,0.0121,0.0112,0.0089,0.0086,0.0057,0.0088,0.0095,0.01,0.0114,0.009,0.0096,0.0034,0.0034,0.0034,0,0,0.0251,0.0248,0.0251,0.0247,0.0237,0.0247,0.0218,0.0216,0.0227,0.0179,0.0184,0.0155,0.0123,0.0121,0.0116,0.0103,0.01,0.0102,0.0107,0.0117,0.0092,0.0098,0.0103,0.0035,0.0035,0.0035,0,0,0.0273,0.0267,0.0283,0.028,0.0273,0.0265,0.0269,0.0253,0.0249,0.0249,0.0218,0.0203,0.0177,0.0161,0.0149,0.0174,0.0131,0.0164,0.0218,0.0195,0.02,0.0205,0.0167,0.0167,0.017,0.017,0.017,0,0.0282,0.0302,0.0285,0.03,0.0308,0.028,0.0304,0.0295,0.0278,0.0288,0.0262,0.0237,0.0199,0.021,0.0214,0.019,0.0166,0.0195,0.0205,0.0208,0.0211,0.0172,0.0171,0.0174,0.0174,0.0173,0.0173,0,0.0318,0.0334,0.0343,0.0359,0.0364,0.0377,0.037,0.0376,0.0367,0.0362,0.0366,0.0316,0.0304,0.0286,0.0257,0.0266,0.0237,0.0214,0.0191,0.0223,0.0178,0.0176,0.018,0.0178,0.0177,0.0176,0,0,0.0344,0.0367,0.0371,0.0398,0.04,0.0416,0.0437,0.046,0.0494,0.046,0.0499,0.045,0.0422,0.0406,0.0362,0.0339,0.0323,0.0292,0.0289,0.0263,0.0266,0.0246,0.024,0.0306,0.0306,0.0306,0.0223,0,0.0381,0.0431,0.043,0.0486,0.0516,0.0509,0.054,0.0555,0.0558,0.0584,0.0539,0.0549,0.0469,0.0469,0.043,0.0359,0.0323,0.0347,0.0231,0.0228,0.0213,0.024,0.0243,0.017,0.022,0.022,0.022,0,0.0423,0.0455,0.0513,0.0573,0.0587,0.0615,0.0676,0.0703,0.0724,0.0727,0.0719,0.0681,0.0645,0.0572,0.0456,0.0478,0.0378,0.031,0.0305,0.0261,0.0205,0.0147,0.0164,0.0215,0.0216,0.0216,0.0216,0,0.0466,0.0519,0.0574,0.0589,0.0643,0.0679,0.0716,0.075,0.0807,0.0825,0.0865,0.0797,0.0784,0.0658,0.0497,0.0483,0.0366,0.0327,0.021,0.0206,0.0174,0.0168,0.0242,0.0242,0.0242,0.0243,0.0243,0,0.0514,0.0562,0.0602,0.0636,0.0723,0.0739,0.084,0.0864,0.0927,0.1018,0.0944,0.0985,0.0808,0.0716,0.0546,0.0375,0.0395,0.0228,0.0192,0.02,0.0197,0.021,0.0207,0.0239,0.024,0.0241,0.0241,0,0.0555,0.0575,0.0651,0.0717,0.0747,0.0814,0.0934,0.1016,0.1052,0.1167,0.1184,0.1138,0.1021,0.0822,0.062,0.0457,0.0283,0.0209,0.0223,0.0191,0.0121,0.0124,0.0083,0.0082,0.0081,0.008,0.008,0,0.0581,0.062,0.0712,0.0772,0.0807,0.091,0.0997,0.1072,0.1173,0.1266,0.1336,0.1261,0.1233,0.0918,0.0615,0.0323,0.028,0.0129,0.0103,0.0141,0.0109,0.0113,0.0117,0.0078,0.0078,0.0077,0.0077,0,0.0634,0.0662,0.0726,0.0847,0.0945,0.1071,0.12,0.1298,0.1407,0.15,0.1593,0.1578,0.1288,0.1001,0.0595,0.0385,0.0177,0.011,0.0154,0.0127,0.0132,0.0103,0.0107,0.0072,0.0073,0.0073,0.0073,0.0073,0.0675,0.0729,0.0815,0.0935,0.1056,0.122,0.1338,0.1482,0.165,0.1791,0.1763,0.173,0.1404,0.0887,0.0528,0.0139,0.0171,0.0024,0.0027,0.0031,0.0054,0.0059,-0.0013,-0.0013,-0.0013,-0.0013,-0.0013,0,0.0724,0.0793,0.0904,0.1054,0.1197,0.126,0.147,0.1585,0.1779,0.1888,0.1949,0.162,0.1302,0.0913,0.0351,0.0034,-0.0007,-0.009,-0.0063,-0.0056,-0.0049,-0.0029,-0.0119,-0.0121,-0.0122,-0.0123,0,0,0.0754,0.0859,0.0917,0.1144,0.1265,0.1469,0.1594,0.1748,0.1858,0.195,0.1931,0.187,0.1418,0.099,0.0543,0.0218,0.015,0.0136,0.0256,0.0349,0.0359,0.0049,0.0093,0,0,0,0,0]}],[{"header":{"parameterUnit":"m.s-1","parameterCategory":2,"la1":30.2991,"la2":30.254,"lo1":-89.0895,"lo2":-89.0444,"dy":0.0017,"dx":0.0017,"nx":28,"ny":28,"refTime":"2024-05-26T21:00:00:Z","depth":"4","parameterNumber":2,"parameterNumberName":"U-component_of_CURRENTS"},"data":[0,0,0,0,0,0,0,0,0,0,0,0,0,0,0,0,0,0,0,0,0,0,0,0,0,0,0,0,0,0,0,0,0,0,0,0,0,0,0,0,0,0,0,0,0,0,0,0,0,0,0,0,0,0,0,0,0,0,0.1884,0.1885,0,0.1938,0.1939,0.1939,0.1993,0.1994,0.1995,0.1996,0.2074,0.2075,0.2076,0,0,0,0,0,0,0,0,0,0,0,0,0,0.1825,0.1826,0.1884,0.1885,0.1886,0.1938,0.1939,0.1939,0.1993,0.1994,0.1995,0.1996,0.2073,0.2075,0.2076,0,0,0,0,0,0,0,0,0,0,0,0,0,0.186,0.1826,0.1884,0.1921,0.1925,0.1938,0.1939,0.1939,0.1993,0.1994,0.1995,0.1997,0.2073,0.2075,0.2076,0.206,0,0,0.2082,0.2083,0,0,0,0,0,0,0,0,0.1858,0.1862,0.1915,0.1918,0.1923,0.1962,0.1947,0.1982,0.1992,0.1965,0.1996,0.1997,0.2039,0.2044,0.2047,0.2064,0.2067,0.2082,0.2083,0.2084,0.2085,0,0,0,0,0,0,0,0.1855,0.186,0.1903,0.1915,0.192,0.1934,0.194,0.1953,0.1992,0.1967,0.1972,0.1981,0.2041,0.2045,0.205,0.2068,0.2082,0.2084,0.2085,0.2086,0.2214,0.2216,0,0,0,0,0,0,0.1852,0.1857,0.1902,0.1905,0.1896,0.1934,0.1941,0.1946,0.1992,0.2,0.1979,0.1983,0.2042,0.2047,0.2053,0.2156,0.2084,0.2086,0.2087,0.2212,0.2215,0.2217,0,0,0,0,0,0,0.185,0.1855,0.19,0.1885,0.1892,0.1934,0.1939,0.1947,0.1992,0.2001,0.201,0.2023,0.2043,0.205,0.2107,0.2155,0.2087,0.2088,0.2209,0.2213,0.2216,0.2286,0,0,0,0,0,0,0.1848,0.1854,0.1878,0.1884,0.1892,0.193,0.1939,0.1947,0.1994,0.2,0.204,0.2046,0.2045,0.2104,0.2109,0.2156,0.209,0.2206,0.2211,0.2215,0.2281,0.2291,0.2301,0,0,0,0,0,0.1846,0.1863,0.1878,0.1885,0.1916,0.1931,0.1937,0.1969,0.1995,0.2016,0.2055,0.2047,0.2135,0.2107,0.2112,0.2161,0.2204,0.2209,0.2215,0.2276,0.2289,0.23,0,0,0,0,0,0,0.1852,0.187,0.1887,0.1911,0.1933,0.1942,0.1971,0.1991,0.2036,0.2059,0.2069,0.2078,0.2145,0.2145,0.2114,0.2214,0.2172,0.2178,0.2217,0.2229,0.2239,0.2235,0.2091,0,0,0,0,0,0.1862,0.1884,0.1899,0.1924,0.1938,0.1963,0.1984,0.2005,0.2034,0.2058,0.2086,0.2125,0.2161,0.2191,0.2212,0.2264,0.2267,0.2303,0.2312,0.2321,0.2323,0.2382,0.2397,0.2234,0.2234,0.2234,0,0,0.1874,0.1888,0.1903,0.1929,0.1951,0.1974,0.198,0.2019,0.2055,0.2058,0.2129,0.2156,0.2182,0.2241,0.2273,0.2255,0.2369,0.2327,0.2334,0.2331,0.2389,0.2404,0.2418,0.2238,0.2237,0.2237,0,0,0.1888,0.1919,0.1937,0.1958,0.1997,0.201,0.2031,0.2062,0.21,0.216,0.2178,0.2236,0.2291,0.2317,0.2338,0.2417,0.2414,0.2438,0.2492,0.255,0.2563,0.2575,0.2595,0.2608,0.2449,0.245,0.245,0,0.1907,0.1925,0.1947,0.1968,0.1997,0.2031,0.2059,0.2095,0.2147,0.2185,0.2199,0.2304,0.2325,0.24,0.2435,0.2439,0.2463,0.2442,0.2562,0.2574,0.2585,0.2602,0.2615,0.2454,0.2453,0.2453,0.2452,0,0.1919,0.1953,0.1968,0.2008,0.2041,0.2073,0.2117,0.2167,0.2223,0.2259,0.2355,0.239,0.2454,0.2479,0.2485,0.258,0.2569,0.2561,0.2527,0.2605,0.2618,0.2631,0.2459,0.2458,0.2457,0.2456,0,0,0.1907,0.1965,0.1975,0.2003,0.2068,0.2088,0.2164,0.223,0.2289,0.2361,0.2443,0.2518,0.2549,0.2575,0.2596,0.2653,0.275,0.2654,0.2655,0.2664,0.2868,0.2677,0.2672,0.2777,0.278,0.2782,0.2844,0,0.1914,0.1955,0.1991,0.2048,0.2073,0.2138,0.22,0.2274,0.2349,0.2435,0.2505,0.2589,0.2583,0.2637,0.2692,0.2747,0.2789,0.2732,0.2798,0.2799,0.2613,0.2682,0.2791,0.2853,0.2856,0.2858,0.286,0,0.1905,0.1938,0.1992,0.2067,0.2087,0.2139,0.2249,0.2311,0.2436,0.25,0.2598,0.2654,0.2763,0.2743,0.2863,0.2838,0.2857,0.2882,0.2885,0.2687,0.2631,0.2762,0.2882,0.288,0.2879,0.2877,0.2876,0,0.1863,0.1935,0.1982,0.2008,0.21,0.2159,0.2226,0.2343,0.241,0.2562,0.2638,0.2748,0.2839,0.2894,0.295,0.2932,0.3062,0.3035,0.2867,0.2853,0.2975,0.2962,0.3099,0.3099,0.3099,0.3099,0.3099,0,0.1832,0.1871,0.1974,0.1996,0.2067,0.215,0.2248,0.2329,0.2464,0.2546,0.2677,0.2753,0.2892,0.2975,0.299,0.2965,0.3094,0.2878,0.2862,0.3002,0.2991,0.2983,0.2969,0.3101,0.3101,0.31,0.31,0,0.1764,0.1832,0.1887,0.2002,0.2046,0.2103,0.2251,0.2309,0.2461,0.2579,0.264,0.2809,0.2912,0.2996,0.3097,0.3004,0.3005,0.2955,0.3095,0.3085,0.2744,0.2733,0.2769,0.2763,0.2758,0.2753,0.275,0,0.1725,0.175,0.1878,0.1918,0.1978,0.2082,0.2143,0.2293,0.2353,0.258,0.2614,0.279,0.2876,0.2857,0.2957,0.2956,0.2916,0.2882,0.2804,0.2732,0.2714,0.2711,0.2708,0.2741,0.274,0.2739,0.2737,0,0.165,0.1716,0.1763,0.1848,0.1923,0.198,0.2086,0.2114,0.2285,0.2456,0.2527,0.2583,0.2687,0.2741,0.2762,0.2755,0.289,0.2827,0.2837,0.2763,0.2699,0.2686,0.2688,0.2719,0.2722,0.2724,0.2725,0,0.1603,0.1617,0.1695,0.1751,0.1835,0.1844,0.1915,0.1981,0.2058,0.2296,0.2318,0.2499,0.2665,0.2637,0.266,0.2639,0.2589,0.2484,0.251,0.2531,0.2423,0.2305,0.2194,0,0,0,0,0,0.1541,0.154,0.1588,0.1626,0.1699,0.1742,0.1853,0.1926,0.2101,0.2087,0.2191,0.2271,0.2325,0.2415,0.2344,0.2545,0.2594,0.2449,0.2484,0.262,0.264,0.2533,0,0,0,0,0,0,0.1497,0.1538,0.1543,0.1508,0.1512,0.1562,0.1624,0.174,0.1733,0.1932,0.1972,0.2127,0.221,0.2347,0.2303,0.2326,0.2296,0.2559,0.2552,0.2608,0.2627,0.2643,0.2541,0,0,0,0,0]},{"header":{"parameterUnit":"m.s-1","parameterCategory":2,"la1":30.2991,"la2":30.254,"lo1":-89.0895,"lo2":-89.0444,"dy":0.0017,"dx":0.0017,"nx":28,"ny":28,"refTime":"2024-05-26T21:00:00:Z","depth":"4","parameterNumber":3,"parameterNumberName":"V-component_of_CURRENTS"},"data":[0,0,0,0,0,0,0,0,0,0,0,0,0,0,0,0,0,0,0,0,0,0,0,0,0,0,0,0,0,0,0,0,0,0,0,0,0,0,0,0,0,0,0,0,0,0,0,0,0,0,0,0,0,0,0,0,0,0,0.0075,0.0075,0,0.0053,0.0052,0.0052,0.0032,0.0031,0.0031,0.0031,-0.0012,-0.0013,-0.0014,0,0,0,0,0,0,0,0,0,0,0,0,0,0.0075,0.0075,0.0075,0.0075,0.0075,0.0053,0.0052,0.0052,0.0032,0.0031,0.0031,0.0031,-0.0011,-0.0013,-0.0014,0,0,0,0,0,0,0,0,0,0,0,0,0,0.0065,0.0075,0.0075,0.0062,0.0061,0.0053,0.0052,0.0052,0.0032,0.0031,0.0031,0.0031,-0.0011,-0.0012,-0.0014,-0.0017,0,0,-0.0018,-0.0019,0,0,0,0,0,0,0,0,0.0066,0.0065,0.0064,0.0063,0.0062,0.0045,0.0037,0.0028,0.0032,0.0042,0.0031,0.0031,0.0006,0.0003,-0.0001,-0.0019,-0.0021,-0.0018,-0.0019,-0.002,-0.002,0,0,0,0,0,0,0,0.0067,0.0066,0.0065,0.0064,0.0063,0.0049,0.0048,0.0035,0.0025,0.0041,0.004,0.0039,0.0005,0.0,-0.0002,-0.0022,-0.0018,-0.002,-0.0021,-0.0021,-0.0035,-0.0035,0,0,0,0,0,0,0.0072,0.0067,0.0066,0.0065,0.0064,0.0049,0.0048,0.005,0.0026,0.0022,0.0039,0.0038,0.0003,-0.0001,-0.0004,0.0012,-0.002,-0.0021,-0.0022,-0.0036,-0.0035,-0.0034,0,0,0,0,0,0,0.0073,0.0073,0.0067,0.0065,0.0064,0.005,0.0053,0.005,0.0049,0.0024,0.002,0.0041,0.0003,-0.0002,-0.0005,0.0009,-0.0022,-0.0023,-0.0036,-0.0035,-0.0035,0.003,0,0,0,0,0,0,0.0073,0.0073,0.0078,0.0066,0.0064,0.0069,0.0053,0.005,0.0049,0.0047,0.0025,0.002,0.0002,-0.0002,-0.0006,0.0007,-0.0024,-0.0037,-0.0036,-0.0035,0.0027,0.0033,0.0038,0,0,0,0,0,0.0073,0.0082,0.0078,0.0078,0.0071,0.007,0.0068,0.0056,0.0049,0.0053,0.0041,0.0021,0.0001,-0.0003,-0.0007,0.0005,-0.0037,-0.0036,-0.0035,0.0025,0.0032,0.0038,0,0,0,0,0,0,0.0084,0.0081,0.0076,0.0084,0.008,0.0067,0.0069,0.0061,0.0055,0.0053,0.003,0.0025,0.0026,0.0007,0.0003,0.0003,-0.0023,-0.0022,0.0025,0.0031,0.0036,0.005,-0.0026,0,0,0,0,0,0.0089,0.0096,0.0089,0.0095,0.0095,0.0083,0.0081,0.0075,0.0067,0.0063,0.0049,0.0034,0.0026,0.0022,0.0008,0.0011,-0.0017,0.0014,0.002,0.0024,0.0032,0.0007,0.0011,-0.0031,-0.0031,-0.0031,0,0,0.0095,0.0094,0.0097,0.0098,0.0093,0.0104,0.0081,0.0083,0.0095,0.006,0.007,0.0051,0.003,0.0034,0.0032,0.0021,0.002,0.0026,0.003,0.0035,0.0009,0.0013,0.0017,-0.003,-0.003,-0.003,0,0,0.0112,0.0109,0.0122,0.0123,0.0122,0.0118,0.0122,0.0114,0.0114,0.0122,0.0099,0.0091,0.008,0.0068,0.0062,0.0086,0.0047,0.008,0.0121,0.0098,0.0101,0.0104,0.0067,0.0066,0.0085,0.0085,0.0085,0,0.0119,0.0136,0.0125,0.0139,0.0149,0.013,0.0152,0.0149,0.0142,0.0151,0.0134,0.0121,0.0098,0.0107,0.0115,0.0099,0.0075,0.0101,0.0105,0.0107,0.0109,0.0071,0.0069,0.0088,0.0088,0.0087,0.0087,0,0.0147,0.0163,0.0171,0.0187,0.0195,0.0208,0.0208,0.0217,0.0214,0.0212,0.0218,0.0185,0.018,0.0168,0.0151,0.0156,0.0131,0.0114,0.0092,0.0117,0.0075,0.0072,0.0093,0.0092,0.0091,0.009,0,0,0.0163,0.0187,0.0191,0.0215,0.0224,0.0239,0.0262,0.0284,0.0309,0.029,0.0317,0.0292,0.027,0.026,0.0229,0.0207,0.019,0.0172,0.0169,0.014,0.0129,0.011,0.0104,0.0176,0.0176,0.0176,0.0093,0,0.0191,0.0233,0.0238,0.0287,0.0313,0.0314,0.0344,0.0359,0.0362,0.0381,0.0348,0.0357,0.0307,0.0308,0.0277,0.0219,0.0186,0.0213,0.0105,0.0102,0.0086,0.0102,0.0176,0.009,0.0089,0.0089,0.0088,0,0.0221,0.0248,0.0299,0.0353,0.0366,0.0395,0.0446,0.0471,0.0485,0.0487,0.0479,0.045,0.0425,0.0374,0.0281,0.0303,0.0223,0.0165,0.016,0.012,0.0077,0.006,0.0082,0.0082,0.0083,0.0083,0.0084,0,0.0247,0.0297,0.0344,0.0359,0.041,0.0445,0.048,0.0507,0.0548,0.0558,0.0582,0.0531,0.0524,0.0422,0.0301,0.0295,0.0187,0.0161,0.006,0.0057,0.0069,0.0067,0.0084,0.0084,0.0084,0.0084,0.0085,0,0.0278,0.032,0.0364,0.0393,0.0467,0.0489,0.0569,0.0591,0.0634,0.0693,0.0643,0.0663,0.0539,0.0461,0.033,0.019,0.0204,0.0071,0.004,0.0096,0.0099,0.0066,0.0065,0.0081,0.0082,0.0082,0.0083,0,0.0299,0.0323,0.0388,0.0453,0.0483,0.054,0.0641,0.0698,0.0727,0.0799,0.0812,0.0774,0.0678,0.0526,0.0363,0.0243,0.0097,0.0035,0.0105,0.0078,-0.0028,-0.0025,-0.0076,-0.0077,-0.0078,-0.0079,-0.008,0,0.0313,0.0345,0.0433,0.0485,0.0521,0.061,0.068,0.0741,0.0801,0.0866,0.0901,0.0844,0.0791,0.0553,0.0377,0.0121,0.0074,-0.0013,-0.0021,-0.0016,-0.0042,-0.0037,-0.0032,-0.0081,-0.0082,-0.0082,-0.0082,0,0.0341,0.0371,0.0426,0.0529,0.0612,0.0709,0.0807,0.0857,0.0934,0.0962,0.0985,0.0877,0.0766,0.0568,0.0368,0.018,0.0042,-0.0025,-0.0024,-0.0032,-0.0024,-0.0047,-0.0041,-0.0086,-0.0085,-0.0085,-0.0085,0,0.0365,0.0406,0.0479,0.0574,0.0679,0.078,0.0831,0.091,0.0973,0.1031,0.1036,0.0923,0.0863,0.0598,0.0414,0.023,0.0175,0.0097,0.009,0.0092,0.0158,0.0194,0.018,0,0,0,0,0,0.0384,0.0434,0.0522,0.0628,0.0733,0.0797,0.0906,0.0949,0.1015,0.1041,0.1043,0.0938,0.0705,0.0608,0.0421,0.0364,0.0119,0.0134,0.0021,-0.0106,-0.0102,-0.0055,0,0,0,0,0,0,0.0399,0.0475,0.0519,0.0654,0.0734,0.0856,0.0928,0.0975,0.0984,0.1023,0.0903,0.0871,0.0638,0.0814,0.0414,0.0361,0.0256,0.0032,0.0028,-0.0108,-0.0104,-0.0101,-0.0051,0,0,0,0,0]}]]